Погода в Батове

Россия / Санкт-Петербург и Ленинградская область     59°19′08″N   29°54′00″E
темп.,
°C
ветер,
м/с
пор.,
м/с
влажн.,
%
обл.,
%
осадки,
мм/ч
давл.,
гПа
погр.,
м
3 марта, ср
ср300:00−1зсз410910 0.0 1019427
03:00−1зсз412922 0.0 1019475
06:00−2з4119418 0.0 1017438
09:00−1з5128853 0.0 1017663
12:00+1з5127775 0.0 1015842
15:00+3з6126787 0.0 10121325
18:00+1з5139682 0.1 1008974
21:00+2з6139491 0.8 10051009
4 марта, чт
чт400:00+1сз61190100 0.2 1003991
03:00−2зсз4118177 0.2 1005560
06:00−3зсз310860 0.0 1004461
09:00−4зсз37860 0.0 1004346
12:00−1сз35740 0.0 1003710
15:00−1сз467145 0.0 10041012
18:00−4сз5876100 0.1 1004888
21:00−5ссз4879100 0.1 1006904
5 марта, пт
пт500:00−6сз388338 0.0 1006615
03:00−7сз378548 0.0 1008614
06:00−8сз388379 0.0 1008620
09:00−8сз488072 0.0 1010588
12:00−6сз367293 0.0 1011791
15:00−6ссз357197 0.1 1013883
18:00−7с3676100 0.1 1014850
21:00−8сз268567 0.1 1016305
6 марта, сб
сб600:00−9зсз25826 0.0 1017182
03:00−9зсз268612 0.0 1018220
06:00−9зсз27940 0.0 1017235
09:00−8з38890 0.0 1017394
12:00−4зюз477246 0.0 1015850
15:00−3юз5106873 0.0 10111087
18:00−4юз71691100 1.2 10051435
21:00−2зюз81693100 3.6 9991282
7 марта, вс
вс700:00−1зюз81694100 2.0 9931233
03:00−3сз71393100 6.8 9921190
06:00−10з3147367 0.4 9931267
09:00−7з5137066 0.7 9922016
12:00−8зсз7127299 0.1 9911453
15:00−6з7149099 1.1 9921217
18:00−6ссз61183100 1.3 9961345
21:00−8ссз51289100 1.6 1000686